Location: New Town
(33.2710°N, 90.7534°W)
Time: 13:28:27
(UTC+00:00)

Explorer 11/Cluster Stage 4 - Pass Details

Date: 13 May 2021
Orbit: 467 x 1257 km, 28.8° (Epoch: 14 June)

Event Time Altitude Azimuth Distance (km) Brightness Sun altitude
Rises 07:22:40 0° 272° (W) 4,025 - -34.6°
Reaches altitude 10° 07:26:02 10° 263° (W) 2,959 - -34.3°
Maximum altitude 07:32:10 30° 206° (SSW) 1,669 - -33.7°
Drops below altitude 10° 07:37:21 10° 146° (SSE) 2,471 - -33.2°
Sets 07:39:56 0° 135° (SE) 3,271 - -33.0°
